Torna al catalogo

COSMOS 591

AttivoMilitareLEO
NORAD 6848·PAYLOAD·🇷🇺 Russia

Lanciato Oct 2, 1973 da Plesetsk Cosmodrome

Loading…

Prossimi Passaggi (prossime 24 ore)

TLE

AggiornatoSource: Space-Track

Epoca: Sep 14, 2026, 15:08 UTC

1 06848U 73069D   26257.63057029  .00000000  00000-0  90940-4 0  9991
2 06848  74.0026 317.1536 0089769 342.3664 185.7846 12.61753949438786

Traccia COSMOS 591 in tempo reale con AllMySat

Download on the App Store